When you browse on this site, cookies collect data to enhance your experience and personalize the content and advertising you see.
Visit our Privacy Policy to learn more. By continuing to use the site, you agree to this use of cookies and data.
  • In Hungary
  • List of Countries
  • For 7 days
  • Water Temperature
  • Weather Map
  • News
  • Weather Widgets
  • user-avatar
    Login

    Hourly Weather Adelfia

    Today, 18 August, Sunday

    Time Temperature Precipitation Wind Pressure Humidity
    00:00 +24°C° 0 mm 3 mps 748 mmHg 55%
    01:00 +24°C° 0 mm 2 mps 749 mmHg 54%
    02:00 +24°C° 0 mm 2 mps 748 mmHg 55%
    03:00 +24°C° 0 mm 2 mps 748 mmHg 56%
    04:00 +24°C° 0 mm 2 mps 748 mmHg 57%
    05:00 +25°C° 0 mm 2 mps 748 mmHg 52%
    06:00 +26°C° 0 mm 2 mps 748 mmHg 47%
    07:00 +27°C° 0 mm 2 mps 749 mmHg 42%
    08:00 +28°C° 0 mm 2 mps 749 mmHg 39%
    09:00 +30°C° 0 mm 2 mps 749 mmHg 36%
    10:00 +31°C° 0 mm 2 mps 749 mmHg 33%
    11:00 +32°C° 0 mm 2 mps 749 mmHg 31%
    12:00 +34°C° 0 mm 2 mps 749 mmHg 29%
    13:00 +34°C° 0 mm 3 mps 749 mmHg 28%
    14:00 +34°C° 0 mm 3 mps 749 mmHg 28%
    15:00 +34°C° 0 mm 3 mps 748 mmHg 29%
    16:00 +34°C° 0 mm 4 mps 748 mmHg 29%
    17:00 +33°C° 0 mm 3 mps 748 mmHg 32%
    18:00 +30°C° 0 mm 3 mps 748 mmHg 36%
    19:00 +29°C° 0 mm 2 mps 748 mmHg 39%
    20:00 +28°C° 0 mm 2 mps 748 mmHg 40%
    21:00 +28°C° 0 mm 2 mps 748 mmHg 41%
    22:00 +27°C° 0 mm 2 mps 748 mmHg 43%
    23:00 +27°C° 0 mm 2 mps 748 mmHg 44%

    Tomorrow, 19 August, Monday

    Time Temperature Precipitation Wind Pressure Humidity
    00:00 +26°C° 0 mm 2 mps 748 mmHg 46%
    01:00 +26°C° 0 mm 2 mps 748 mmHg 48%
    02:00 +26°C° 0 mm 2 mps 748 mmHg 49%
    03:00 +25°C° 0 mm 1 mps 748 mmHg 50%
    04:00 +25°C° 0 mm 1 mps 748 mmHg 52%
    05:00 +26°C° 0 mm 1 mps 748 mmHg 49%
    06:00 +27°C° 0 mm 1 mps 748 mmHg 46%
    07:00 +28°C° 0 mm 1 mps 748 mmHg 43%
    08:00 +30°C° 0 mm 1 mps 748 mmHg 39%
    09:00 +31°C° 0 mm 1 mps 749 mmHg 34%
    10:00 +33°C° 0 mm 1 mps 749 mmHg 29%
    11:00 +35°C° 0 mm 2 mps 749 mmHg 28%
    12:00 +36°C° 0 mm 2 mps 749 mmHg 26%
    13:00 +36°C° 0 mm 3 mps 749 mmHg 25%
    14:00 +36°C° 0 mm 3 mps 749 mmHg 26%
    15:00 +36°C° 0 mm 3 mps 748 mmHg 27%
    16:00 +35°C° 0 mm 3 mps 748 mmHg 28%
    17:00 +34°C° 0 mm 3 mps 748 mmHg 32%
    18:00 +31°C° 0 mm 2 mps 748 mmHg 35%
    19:00 +30°C° 0 mm 2 mps 748 mmHg 39%
    20:00 +29°C° 0 mm 1 mps 748 mmHg 40%
    21:00 +28°C° 0 mm 1 mps 749 mmHg 42%
    22:00 +28°C° 0 mm 1 mps 749 mmHg 44%
    23:00 +28°C° 0 mm 1 mps 749 mmHg 43%

    Day after tomorrow, 20 August, Tuesday

    Time Temperature Precipitation Wind Pressure Humidity
    00:00 +27°C° 0 mm 1 mps 749 mmHg 43%
    01:00 +25°C° 0 mm 0 mps 749 mmHg 42%
    02:00 +27°C° 0 mm 1 mps 749 mmHg 43%
    03:00 +26°C° 0 mm 1 mps 749 mmHg 44%
    04:00 +26°C° 0 mm 1 mps 749 mmHg 45%
    05:00 +27°C° 0 mm 1 mps 749 mmHg 43%
    06:00 +28°C° 0 mm 1 mps 749 mmHg 41%
    07:00 +29°C° 0 mm 1 mps 749 mmHg 39%
    08:00 +31°C° 0 mm 1 mps 749 mmHg 35%
    09:00 +32°C° 0 mm 1 mps 750 mmHg 31%
    10:00 +34°C° 0 mm 1 mps 750 mmHg 27%
    11:00 +35°C° 0 mm 2 mps 750 mmHg 25%
    12:00 +36°C° 0 mm 3 mps 750 mmHg 24%
    13:00 +37°C° 0 mm 3 mps 750 mmHg 23%
    14:00 +37°C° 0 mm 3 mps 749 mmHg 24%
    15:00 +36°C° 0 mm 4 mps 749 mmHg 24%
    16:00 +36°C° 0 mm 4 mps 749 mmHg 25%
    17:00 +35°C° 0 mm 3 mps 749 mmHg 28%
    18:00 +33°C° 0 mm 3 mps 749 mmHg 32%
    19:00 +31°C° 0 mm 2 mps 749 mmHg 35%
    20:00 +30°C° 0 mm 2 mps 749 mmHg 36%
    21:00 +29°C° 0 mm 2 mps 749 mmHg 36%
    22:00 +29°C° 0 mm 2 mps 749 mmHg 37%
    23:00 +29°C° 0 mm 2 mps 749 mmHg 36%

    21 August, Wednesday

    Time Temperature Precipitation Wind Pressure Humidity
    00:00 +28°C° 0 mm 2 mps 749 mmHg 36%
    01:00 +28°C° 0 mm 1 mps 748 mmHg 36%
    02:00 +28°C° 0 mm 1 mps 748 mmHg 37%
    03:00 +27°C° 0 mm 1 mps 748 mmHg 37%
    04:00 +27°C° 0 mm 1 mps 748 mmHg 38%
    05:00 +28°C° 0 mm 1 mps 749 mmHg 36%
    06:00 +29°C° 0 mm 1 mps 749 mmHg 34%
    07:00 +30°C° 0 mm 1 mps 749 mmHg 33%
    08:00 +32°C° 0 mm 1 mps 749 mmHg 31%
    09:00 +33°C° 0 mm 1 mps 749 mmHg 29%
    10:00 +36°C° 0 mm 2 mps 749 mmHg 26%
    11:00 +36°C° 0 mm 2 mps 749 mmHg 26%
    12:00 +37°C° 0 mm 3 mps 749 mmHg 25%
    13:00 +38°C° 0 mm 3 mps 749 mmHg 25%
    14:00 +37°C° 0 mm 4 mps 748 mmHg 26%
    15:00 +37°C° 0 mm 4 mps 748 mmHg 27%
    16:00 +37°C° 0 mm 4 mps 748 mmHg 27%
    17:00 +35°C° 0 mm 3 mps 748 mmHg 31%
    18:00 +34°C° 0 mm 3 mps 748 mmHg 35%
    19:00 +31°C° 0 mm 2 mps 748 mmHg 38%
    20:00 +31°C° 0 mm 2 mps 748 mmHg 39%
    21:00 +30°C° 0 mm 2 mps 748 mmHg 40%
    22:00 +29°C° 0 mm 1 mps 748 mmHg 41%
    23:00 +29°C° 0 mm 1 mps 748 mmHg 42%

    22 August, Thursday

    Time Temperature Precipitation Wind Pressure Humidity
    00:00 +29°C° 0 mm 1 mps 748 mmHg 43%
    01:00 +28°C° 0 mm 1 mps 748 mmHg 45%
    02:00 +28°C° 0 mm 1 mps 748 mmHg 48%
    03:00 +27°C° 0 mm 2 mps 748 mmHg 51%
    04:00 +27°C° 0 mm 2 mps 748 mmHg 54%
    05:00 +28°C° 0 mm 2 mps 748 mmHg 52%
    06:00 +28°C° 0 mm 2 mps 748 mmHg 51%
    07:00 +29°C° 0 mm 2 mps 749 mmHg 49%
    08:00 +30°C° 0 mm 2 mps 749 mmHg 45%
    09:00 +32°C° 0 mm 2 mps 749 mmHg 40%
    10:00 +34°C° 0 mm 2 mps 749 mmHg 36%
    11:00 +35°C° 0 mm 3 mps 749 mmHg 34%
    12:00 +36°C° 0 mm 3 mps 749 mmHg 33%
    13:00 +36°C° 0 mm 3 mps 748 mmHg 32%
    14:00 +36°C° 0 mm 3 mps 748 mmHg 33%
    15:00 +36°C° 0 mm 3 mps 748 mmHg 35%
    16:00 +35°C° 0 mm 3 mps 748 mmHg 36%
    17:00 +34°C° 0 mm 3 mps 748 mmHg 39%
    18:00 +32°C° 0 mm 2 mps 748 mmHg 42%
    19:00 +30°C° 0 mm 2 mps 748 mmHg 45%
    20:00 +29°C° 0 mm 3 mps 748 mmHg 54%
    21:00 +28°C° 0 mm 4 mps 748 mmHg 63%
    22:00 +27°C° 0 mm 5 mps 749 mmHg 72%
    23:00 +27°C° 0 mm 4 mps 748 mmHg 73%

    23 August, Friday

    Time Temperature Precipitation Wind Pressure Humidity
    00:00 +27°C° 0 mm 4 mps 748 mmHg 73%
    01:00 +26°C° 0 mm 4 mps 748 mmHg 74%
    02:00 +26°C° 0 mm 4 mps 748 mmHg 73%
    03:00 +26°C° 0 mm 4 mps 748 mmHg 71%
    04:00 +26°C° 0 mm 4 mps 748 mmHg 70%
    05:00 +26°C° 0 mm 4 mps 748 mmHg 67%
    06:00 +27°C° 0 mm 4 mps 748 mmHg 64%
    07:00 +28°C° 0 mm 4 mps 748 mmHg 61%
    08:00 +29°C° 0 mm 4 mps 749 mmHg 56%
    09:00 +32°C° 0 mm 4 mps 749 mmHg 50%
    10:00 +33°C° 0 mm 4 mps 749 mmHg 44%
    11:00 +34°C° 0 mm 4 mps 749 mmHg 44%
    12:00 +34°C° 0 mm 4 mps 749 mmHg 43%
    13:00 +35°C° 0 mm 5 mps 748 mmHg 43%
    14:00 +34°C° 0 mm 4 mps 748 mmHg 43%
    15:00 +34°C° 0 mm 4 mps 748 mmHg 44%
    16:00 +34°C° 0 mm 3 mps 748 mmHg 44%
    17:00 +32°C° 0.1 mm 4 mps 748 mmHg 50%
    18:00 +29°C° 0.1 mm 5 mps 748 mmHg 57%
    19:00 +28°C° 0.1 mm 5 mps 749 mmHg 64%
    20:00 +28°C° 0 mm 4 mps 749 mmHg 62%
    21:00 +28°C° 0 mm 4 mps 749 mmHg 61%
    22:00 +27°C° 0 mm 3 mps 749 mmHg 59%
    23:00 +27°C° 0 mm 3 mps 749 mmHg 61%
    Show more